Temp
86 87 87 89 86 82 83 84 82 81 79 80 81 81 81 80 80 81 77 67 67 69 73 75 74 71 71 71 71 70 70 71 71 70 70 69 69 68 68 68 67 67 67
86 86 87 87 89 86 81 84 83 82 78 78 79 80 79 79 78 79 81 76 66 67 69 71 72 67 69 71 70 70 70 70 70 70 69 69 68 68 67 67 67 67 68
84 81 82 86 88 89 83 79 80 83 81 80 76 78 77 78 78 78 79 79 72 63 65 68 68 68 69 69 70 70 69 69 70 69 69 68 68 67 67 67 67 68 67
85 84 78 81 85 86 86 82 83 80 77 78 78 78 75 78 76 78 78 78 77 69 63 65 66 66 66 67 70 70 70 69 69 69 68 68 67 67 67 66 67 68 68
86 85 80 78 77 78 84 81 79 79 77 79 79 76 75 75 77 75 74 76 74 71 67 63 63 63 65 67 69 70 71 70 69 69 68 67 67 67 68 66 68 67 67
85 84 83 79 77 75 76 81 76 75 78 79 77 73 74 76 74 72 74 76 76 72 69 65 63 63 61 64 65 69 71 71 70 70 68 68 68 67 67 67 67 67 67
83 82 82 77 76 72 75 72 73 70 69 77 70 70 70 71 71 70 73 73 74 73 68 69 66 65 64 63 65 68 70 71 71 70 69 68 67 66 66 66 66 66 66
81 80 79 76 76 72 72 70 69 67 68 72 68 66 63 66 67 72 72 72 74 71 69 69 66 65 65 65 63 65 68 70 71 70 68 67 67 66 66 66 66 66 66
82 78 75 76 77 73 71 70 69 68 67 67 71 68 59 60 62 70 70 71 72 71 74 70 68 66 65 64 64 64 62 64 68 69 68 67 66 66 66 66 66 66 66
80 77 76 73 77 73 71 70 70 70 72 64 68 73 74 74 66 67 70 72 71 69 70 71 68 68 66 65 63 61 59 59 63 67 68 67 67 66 66 66 66 66 66
79 73 73 74 74 74 73 72 69 70 71 70 68 66 69 69 71 69 67 68 70 71 68 71 71 69 71 68 67 62 57 57 59 64 66 67 67 67 66 66 66 66 66
79 73 72 70 73 73 71 72 72 71 72 72 72 69 66 64 63 67 66 69 69 70 71 69 70 70 70 70 69 61 55 55 57 60 63 65 66 66 66 66 66 66 66
75 72 69 69 69 71 72 74 72 68 72 72 72 74 73 70 72 70 68 69 69 69 66 67 69 70 68 68 68 58 56 54 55 57 59 61 63 64 65 65 66 66 66
78 75 68 68 70 70 72 72 73 69 69 70 72 73 74 74 74 74 71 67 61 65 66 66 67 66 69 67 64 55 58 52 53 54 56 57 59 60 61 62 63 64 64
76 74 69 67 68 68 69 70 71 71 69 68 70 71 72 72 73 71 71 67 63 55 57 65 65 67 65 64 62 63 62 53 51 51 52 54 56 57 58 58 59 60 62
76 74 72 68 66 67 67 68 69 70 70 68 69 68 68 69 69 70 71 69 68 64 60 68 71 72 66 64 61 63 62 53 50 49 50 51 53 55 55 56 57 57 59
74 72 69 67 66 66 66 66 68 68 67 66 67 67 67 69 68 67 68 68 66 66 61 67 71 70 67 64 62 62 62 61 57 49 49 49 50 50 52 52 53 54 55
73 72 69 67 66 65 65 66 68 69 66 66 66 66 68 68 68 68 67 67 66 67 63 62 68 66 65 62 61 59 60 61 61 48 48 48 48 48 48 48 49 49 50
71 69 67 66 65 64 63 66 69 67 65 66 67 66 67 68 66 66 66 64 66 66 63 61 61 62 65 60 59 57 51 48 48 45 44 45 46 47 47 46 46 46 46
59 61 62 62 63 63 63 64 67 68 65 65 64 65 63 62 62 62 61 63 63 62 60 58 58 59 59 60 57 49 46 46 44 46 43 43 44 44 45 44 44 44 44
44 46 53 53 57 59 58 62 65 65 61 58 56 54 47 43 39 40 49 53 56 57 57 57 56 56 55 54 49 49 45 41 41 42 41 41 42 42 42 44 43 42 42
37 38 38 40 41 45 43 48 57 59 57 53 48 46 43 41 38 37 37 36 36 42 50 55 56 54 54 55 52 47 41 39 36 41 36 33 37 36 38 39 40 40 40
35 35 36 36 35 38 40 43 43 45 43 42 45 45 43 42 42 43 37 35 34 34 34 39 47 45 50 54 51 46 44 43 37 36 37 32 33 32 34 37 38 37 37
30 30 31 33 34 33 35 36 36 37 35 35 36 38 37 37 37 39 36 33 32 32 32 33 33 32 33 34 47 48 44 34 34 34 35 30 32 31 32 34 36 36 35
29 29 29 30 31 32 34 34 33 33 32 32 33 34 34 33 35 37 34 32 30 30 33 33 32 32 32 34 38 40 36 36 32 31 32 32 30 27 28 32 33 35 34
29 29 28 29 30 30 32 33 32 32 30 30 30 31 33 32 33 33 31 29 26 27 28 28 28 28 29 29 31 32 36 37 32 30 30 29 28 28 24 27 29 31 32
MSLP
1009.03 1009.25 1009.40 1009.57 1010.00 1011.04 1011.26 1011.54 1011.79 1011.97 1012.22 1012.59 1012.70 1012.84 1013.15 1013.54 1013.92 1014.00 1014.63 1015.34 1015.41 1015.59 1015.84 1015.89 1016.60 1016.85 1016.32 1017.32 1017.59 1017.93 1018.68 1019.43 1019.82 1020.17 1020.48 1020.64 1020.88 1021.24 1021.74 1022.07 1022.22 1022.56 1022.94
1008.72 1008.74 1009.06 1009.21 1009.27 1009.98 1011.05 1010.89 1011.42 1011.69 1012.05 1012.28 1012.68 1012.77 1013.00 1013.47 1013.76 1013.89 1014.17 1014.61 1015.41 1015.67 1015.84 1016.14 1016.50 1017.10 1015.03 1016.51 1017.54 1017.73 1018.58 1019.22 1019.79 1020.02 1020.47 1020.69 1020.93 1021.35 1021.80 1022.05 1022.14 1022.65 1022.98
1008.37 1009.17 1009.01 1008.74 1008.86 1009.15 1010.07 1011.06 1011.18 1011.33 1011.75 1012.13 1012.45 1012.68 1012.91 1013.08 1013.51 1013.68 1014.04 1014.30 1015.11 1016.14 1016.40 1016.11 1016.54 1016.73 1017.01 1017.46 1017.08 1017.48 1018.48 1019.24 1019.79 1020.00 1020.45 1020.60 1020.99 1021.33 1021.80 1022.11 1022.36 1022.66 1023.01
1007.77 1008.09 1009.02 1008.88 1008.72 1008.93 1009.33 1010.41 1010.74 1010.91 1011.50 1011.82 1012.01 1012.30 1012.75 1012.83 1013.16 1013.42 1013.89 1014.14 1014.48 1015.59 1015.92 1016.22 1016.28 1016.06 1016.03 1014.79 1016.82 1017.36 1018.27 1019.06 1019.60 1019.94 1020.32 1020.52 1020.88 1021.36 1021.81 1022.25 1022.51 1022.79 1023.04
1006.92 1007.47 1008.30 1008.98 1009.22 1009.30 1009.10 1009.88 1010.52 1010.57 1011.16 1011.16 1011.59 1011.97 1012.47 1012.79 1012.88 1013.24 1013.78 1013.98 1014.59 1015.24 1015.21 1015.80 1015.78 1015.80 1015.74 1016.53 1016.78 1017.59 1017.94 1018.67 1019.13 1019.59 1019.99 1020.36 1020.75 1021.23 1021.71 1022.26 1022.68 1022.94 1023.14
1006.29 1006.87 1007.33 1008.43 1009.07 1009.15 1009.19 1009.37 1010.21 1010.79 1010.76 1010.78 1011.39 1011.81 1012.31 1012.48 1012.79 1013.15 1013.49 1013.50 1014.03 1014.65 1014.89 1015.33 1015.79 1015.93 1016.03 1016.26 1016.79 1017.21 1017.43 1018.13 1018.79 1019.18 1019.70 1019.86 1020.52 1021.02 1021.60 1022.16 1022.56 1022.94 1023.09
1005.73 1006.17 1006.66 1007.73 1008.16 1008.72 1008.77 1009.16 1010.11 1010.85 1011.07 1010.82 1011.58 1011.98 1012.26 1012.50 1012.61 1012.90 1013.15 1013.24 1013.79 1014.14 1014.70 1014.94 1015.11 1015.32 1015.62 1016.08 1016.32 1016.54 1017.11 1017.63 1018.16 1018.67 1019.27 1019.34 1020.23 1020.92 1021.43 1021.97 1022.42 1022.74 1023.03
1005.17 1005.60 1006.01 1006.71 1007.35 1007.83 1008.46 1008.75 1009.24 1010.21 1010.75 1010.80 1011.10 1011.80 1011.92 1012.17 1012.04 1012.11 1012.55 1012.80 1012.91 1013.32 1013.85 1014.29 1014.84 1015.10 1015.27 1015.64 1016.26 1015.78 1016.82 1017.13 1017.67 1018.22 1018.74 1018.98 1019.76 1020.63 1021.19 1021.67 1022.15 1022.47 1022.82
1004.15 1004.90 1005.66 1006.14 1006.55 1007.20 1007.58 1008.12 1008.51 1009.11 1009.90 1010.50 1010.47 1010.85 1011.34 1011.07 1011.60 1011.48 1011.69 1012.21 1012.46 1012.84 1012.86 1013.40 1013.86 1014.49 1015.09 1015.48 1015.86 1016.33 1016.54 1016.92 1017.32 1017.76 1018.33 1018.64 1019.26 1020.11 1020.83 1021.32 1021.77 1022.14 1022.54
1003.41 1004.11 1004.81 1005.32 1005.53 1006.23 1006.69 1007.22 1008.08 1008.42 1009.03 1009.74 1010.06 1009.84 1009.78 1009.83 1010.33 1010.15 1010.83 1011.15 1011.67 1012.17 1012.38 1012.64 1013.28 1013.65 1014.32 1014.84 1015.16 1015.43 1015.96 1016.46 1016.89 1017.35 1017.88 1018.23 1018.72 1019.60 1020.37 1020.94 1021.46 1021.79 1022.11
1002.67 1003.57 1004.10 1004.41 1004.77 1005.23 1005.65 1006.15 1007.20 1007.60 1008.05 1008.73 1009.05 1009.45 1009.64 1009.97 1010.05 1009.91 1009.76 1010.53 1011.14 1011.36 1011.80 1012.13 1012.55 1012.86 1013.25 1013.89 1014.37 1014.65 1015.22 1015.81 1016.34 1016.89 1017.34 1017.76 1018.26 1019.02 1019.85 1020.40 1020.84 1021.23 1021.61
1001.36 1002.44 1003.29 1003.97 1004.20 1004.34 1004.70 1005.19 1005.80 1006.40 1006.53 1007.16 1007.90 1008.63 1008.96 1009.18 1009.59 1009.69 1009.76 1009.79 1009.91 1010.27 1011.03 1011.70 1011.96 1012.21 1012.62 1013.00 1013.42 1014.07 1014.71 1015.01 1015.72 1016.36 1016.90 1017.35 1017.76 1018.49 1019.20 1019.69 1020.22 1020.72 1021.20
1000.44 1001.30 1002.34 1003.14 1003.41 1003.61 1003.83 1004.29 1004.79 1005.82 1006.70 1006.56 1006.35 1007.15 1007.91 1008.23 1008.59 1009.04 1009.26 1009.26 1009.35 1009.87 1010.93 1011.43 1011.57 1011.63 1012.21 1012.42 1012.92 1013.61 1014.07 1014.63 1015.11 1015.78 1016.38 1016.76 1017.38 1017.98 1018.52 1018.97 1019.47 1020.00 1020.53
999.37 1000.39 1001.10 1002.08 1002.54 1002.86 1003.08 1003.66 1004.14 1004.91 1004.75 1006.00 1004.80 1006.22 1006.75 1007.33 1007.50 1007.96 1008.38 1009.13 1009.61 1009.95 1010.31 1010.56 1011.31 1011.40 1011.34 1011.79 1012.36 1013.17 1013.71 1014.42 1014.58 1015.25 1015.80 1016.25 1016.92 1017.47 1017.94 1018.45 1018.88 1019.32 1019.72
998.72 999.23 1000.07 1001.01 1001.74 1002.12 1002.57 1003.04 1003.46 1003.64 1004.45 1003.29 1004.47 1006.08 1006.60 1006.82 1007.30 1007.89 1008.52 1009.03 1009.42 1009.81 1009.93 1009.96 1010.23 1010.91 1011.28 1011.50 1011.81 1012.43 1013.12 1013.79 1014.36 1014.72 1015.17 1015.75 1016.34 1016.87 1017.42 1017.92 1018.35 1018.76 1019.25
997.68 998.19 998.95 999.94 1000.93 1001.30 1001.96 1002.56 1002.97 1003.20 1003.50 1004.01 1004.99 1006.14 1006.37 1006.77 1007.37 1007.64 1007.95 1008.33 1008.77 1009.09 1009.01 1008.93 1008.87 1009.18 1010.44 1010.92 1011.47 1011.76 1012.40 1013.10 1013.67 1014.21 1014.62 1015.07 1015.66 1016.34 1016.89 1017.38 1017.80 1018.19 1018.65
996.74 997.39 998.17 999.06 1000.06 1000.64 1001.40 1002.03 1002.28 1002.83 1003.37 1004.12 1004.70 1005.42 1005.89 1006.24 1006.70 1007.33 1007.89 1008.08 1008.27 1008.48 1008.39 1008.23 1008.30 1008.66 1009.53 1010.35 1010.97 1011.25 1011.63 1012.21 1012.88 1013.52 1014.01 1014.50 1015.08 1015.82 1016.27 1016.80 1017.27 1017.70 1018.12
996.33 996.68 997.77 998.49 999.27 1000.03 1000.76 1001.41 1001.49 1002.13 1002.93 1003.77 1004.46 1005.18 1005.54 1005.76 1006.35 1006.87 1007.46 1007.67 1007.89 1008.13 1008.20 1007.96 1007.95 1008.29 1008.93 1009.67 1010.14 1010.74 1011.14 1011.35 1012.06 1013.08 1013.37 1014.04 1014.47 1015.06 1015.72 1016.35 1016.81 1017.31 1017.73
996.41 996.33 997.04 997.90 998.83 999.53 1000.13 1000.54 1000.96 1001.59 1002.13 1002.96 1003.37 1004.95 1005.40 1005.69 1006.50 1007.10 1007.50 1007.58 1007.62 1007.87 1007.97 1008.11 1007.92 1008.15 1008.31 1009.09 1009.68 1010.31 1010.94 1011.85 1012.75 1013.31 1013.70 1013.99 1014.38 1014.70 1015.30 1015.97 1016.45 1016.97 1017.44
997.61 997.37 997.51 998.18 998.61 999.31 999.98 1000.41 1000.69 1001.56 1001.57 1002.33 1003.61 1004.90 1005.49 1006.21 1007.01 1007.40 1007.82 1007.86 1007.88 1007.84 1008.01 1007.99 1007.99 1008.04 1008.20 1008.43 1009.17 1010.39 1011.47 1012.27 1013.19 1013.91 1014.05 1014.40 1014.67 1015.04 1015.51 1015.87 1016.29 1016.95 1017.58
1000.06 999.66 998.85 998.66 998.72 999.18 999.83 1000.45 1000.49 1001.42 1002.17 1003.18 1004.60 1005.84 1007.12 1008.05 1008.68 1009.01 1008.90 1008.99 1008.90 1008.41 1007.96 1007.87 1007.81 1007.82 1007.91 1008.16 1008.92 1010.01 1011.21 1012.32 1013.74 1014.22 1014.11 1015.18 1015.45 1015.92 1016.47 1016.70 1017.14 1017.44 1017.84
1002.19 1002.01 1001.50 1000.90 1001.05 1000.90 1000.82 1000.74 1000.89 1001.87 1003.12 1004.31 1005.53 1007.19 1008.23 1008.93 1009.32 1009.73 1010.02 1010.48 1010.40 1009.80 1008.64 1007.87 1007.83 1007.73 1007.54 1007.61 1008.43 1009.40 1011.03 1012.38 1013.80 1014.25 1014.77 1016.16 1016.53 1016.99 1017.27 1017.61 1018.00 1018.30 1018.87
1004.39 1004.19 1003.94 1003.57 1003.43 1004.11 1002.36 1001.46 1002.26 1003.43 1004.56 1004.69 1007.29 1008.20 1008.74 1009.40 1009.47 1009.90 1010.55 1010.95 1011.08 1010.36 1010.26 1009.62 1008.67 1008.55 1007.96 1007.52 1007.86 1009.16 1009.91 1010.67 1012.34 1013.91 1014.29 1016.41 1017.49 1017.78 1018.77 1018.67 1018.91 1019.74 1019.78
1006.24 1006.65 1006.50 1006.22 1005.38 1006.47 1004.65 1004.14 1003.83 1005.17 1006.21 1007.18 1008.59 1009.19 1009.73 1009.88 1009.98 1010.20 1011.07 1011.25 1011.36 1011.14 1010.91 1010.69 1010.59 1009.97 1009.43 1008.53 1007.62 1008.16 1009.39 1011.48 1012.54 1013.81 1014.02 1016.66 1018.01 1018.91 1018.72 1020.39 1019.72 1020.49 1021.30
1008.34 1008.76 1008.68 1008.58 1007.65 1006.71 1007.32 1006.37 1006.61 1007.34 1008.22 1009.27 1009.74 1010.24 1010.11 1010.25 1010.48 1010.87 1011.47 1011.59 1011.84 1012.06 1012.06 1011.70 1011.74 1011.21 1010.12 1009.28 1008.52 1008.70 1010.64 1011.48 1013.35 1014.30 1014.68 1016.04 1018.27 1018.76 1020.13 1020.85 1020.94 1021.20 1021.74
1010.79 1010.78 1010.57 1010.49 1009.27 1009.40 1008.54 1007.86 1008.27 1009.48 1009.98 1010.22 1010.91 1011.34 1010.25 1010.95 1011.43 1011.91 1012.08 1012.54 1012.63 1013.27 1012.72 1012.19 1011.97 1011.78 1011.78 1011.09 1010.23 1010.32 1010.50 1011.24 1012.22 1014.39 1015.31 1016.59 1017.72 1017.79 1020.58 1021.62 1021.59 1021.59 1022.15
Wind_Speed
9 10 9 9 11 8 10 9 8 7 7 9 8 9 9 9 9 5 4 7 8 7 12 14 15 16 17 20 19 19 18 16 16 15 14 14 13 15 16 16 15 15 13
8 9 10 11 10 11 7 10 10 10 6 7 9 11 9 9 9 8 6 6 7 5 7 6 7 4 15 24 21 19 17 16 15 15 14 13 13 14 14 14 15 14 13
12 12 11 10 10 9 12 8 8 10 9 8 7 9 7 10 8 10 8 4 7 5 4 4 10 12 17 31 22 20 17 14 14 15 13 14 13 13 12 12 13 14 13
17 13 11 11 9 9 10 9 11 8 7 8 8 8 6 8 8 8 6 6 4 3 7 10 11 10 15 27 16 19 21 18 17 16 14 14 14 13 13 13 14 16 16
17 13 10 12 11 9 10 9 8 8 9 9 10 6 6 7 8 5 8 8 7 6 4 10 13 13 14 18 19 23 23 22 21 20 18 16 15 15 15 12 16 16 15
16 13 11 13 12 10 10 9 11 6 10 9 8 4 5 6 4 5 9 8 9 7 6 7 5 7 13 16 20 28 24 24 23 22 21 19 15 16 17 14 16 16 17
15 14 11 12 13 12 14 10 8 9 7 7 4 5 5 5 7 5 8 6 8 8 8 7 5 4 6 10 11 24 25 25 24 24 22 20 18 16 18 15 16 17 17
15 14 14 14 16 12 16 13 13 7 7 8 6 3 4 5 6 9 8 8 10 6 8 10 8 5 5 6 9 17 23 24 25 23 21 21 20 17 18 19 19 19 16
16 16 16 15 15 13 13 13 13 14 9 7 11 6 3 6 2 7 11 8 10 8 9 10 10 9 7 6 9 13 19 18 22 23 22 21 21 21 19 20 19 19 18
16 16 17 17 16 13 13 13 12 12 12 9 9 10 10 5 6 5 6 9 8 9 10 8 9 9 10 8 11 12 19 16 17 21 23 22 22 22 20 20 20 20 19
18 16 16 16 17 14 15 15 14 14 12 10 11 7 10 8 8 7 6 5 6 6 7 8 9 7 10 11 10 8 16 17 17 19 21 22 22 22 21 21 19 19 19
11 16 16 16 16 15 15 14 17 19 16 13 10 10 8 7 7 8 8 10 8 7 7 6 8 7 8 8 12 14 17 17 18 17 17 21 22 22 23 21 20 19 18
9 14 16 16 14 16 16 16 16 13 13 13 14 11 10 9 9 10 9 10 8 3 3 3 6 8 7 6 8 7 17 20 20 18 16 18 21 21 22 22 22 21 19
13 16 15 15 16 17 16 15 14 13 18 15 15 12 9 9 8 8 7 6 5 5 5 8 7 8 9 8 10 12 8 16 18 18 16 16 17 17 17 19 20 20 21
12 15 15 16 15 14 15 15 13 15 13 14 9 10 9 7 7 7 7 5 5 5 7 8 7 11 8 8 10 12 10 15 14 16 16 17 16 16 16 16 16 16 16
20 17 17 16 13 14 14 16 13 13 12 8 7 12 10 8 9 8 9 7 9 9 10 9 9 9 11 8 10 13 13 12 17 17 17 16 15 15 15 15 15 15 15
20 17 15 15 15 14 14 15 15 13 14 10 9 11 12 13 8 8 8 9 8 9 8 9 8 6 12 12 8 12 11 12 8 17 16 16 15 14 15 14 14 13 12
17 18 15 14 15 15 16 17 20 16 15 13 12 10 12 7 10 10 9 11 9 10 8 12 9 7 9 12 11 12 10 8 7 7 13 13 15 15 14 13 12 11 11
14 13 9 11 13 14 16 18 18 17 17 14 9 10 10 10 11 9 11 10 9 9 7 8 8 5 7 7 8 4 5 7 6 12 9 5 9 11 11 11 11 12 12
4 5 7 9 11 12 13 14 15 14 12 10 9 6 3 2 5 2 4 6 6 7 7 8 8 6 5 6 7 6 4 4 5 5 12 10 11 13 12 15 17 18 18
15 15 9 6 5 6 5 13 14 12 11 11 11 9 11 12 16 12 3 7 9 8 8 8 8 6 6 5 8 5 5 7 5 3 8 6 6 7 8 12 15 18 21
17 16 16 15 14 6 6 8 10 11 12 12 10 11 9 11 12 13 14 16 10 5 9 7 8 8 9 8 8 10 9 6 4 2 6 6 6 8 5 6 16 18 20
19 19 17 16 18 14 17 22 20 13 13 15 9 8 8 6 6 6 10 10 13 16 11 6 4 3 4 8 10 11 11 9 5 8 10 7 3 8 5 10 19 18 21
19 18 18 16 13 14 24 23 25 16 15 16 11 10 9 9 9 6 7 8 9 13 14 9 9 8 6 6 6 5 7 8 10 5 3 5 3 6 8 5 19 18 18
18 17 17 18 17 20 24 26 18 15 16 15 14 12 10 11 15 11 8 9 10 9 11 19 21 22 24 25 10 12 9 11 4 2 4 5 5 7 4 4 6 17 18
15 13 17 17 26 19 33 31 19 9 11 10 12 12 26 18 21 18 11 8 10 9 8 11 12 17 19 18 25 12 2 7 6 3 3 5 6 6 5 2 4 6 7
Wind_Direction
217 211 216 229 186 199 210 216 226 222 227 225 230 226 221 221 228 222 215 176 183 206 227 215 223 230 200 172 168 160 163 166 167 164 160 157 152 144 149 151 141 139 146
215 228 213 216 227 183 208 220 216 219 221 226 225 228 227 222 233 224 237 168 167 183 159 192 213 247 259 184 174 162 167 172 174 167 167 158 149 147 150 150 139 154 153
200 208 231 227 214 223 178 210 224 216 222 221 223 229 235 227 219 225 230 222 138 120 117 98 186 206 265 228 179 163 166 175 179 171 171 159 155 153 154 155 151 166 161
221 199 201 229 214 235 196 202 217 212 219 222 220 225 213 227 225 226 219 227 162 146 152 184 206 220 218 235 185 175 171 176 180 177 174 168 162 161 164 164 176 182 179
217 226 192 214 205 217 236 192 238 206 211 218 226 203 213 230 225 217 220 209 203 196 147 181 213 207 211 212 210 211 184 184 182 181 175 174 172 173 183 179 189 188 184
217 210 200 208 204 199 214 212 209 206 220 219 231 203 215 236 250 223 227 210 198 200 156 161 191 216 227 231 236 208 193 191 190 188 184 174 181 187 187 194 185 194 190
213 215 213 201 201 203 204 193 200 193 228 212 190 232 252 245 223 220 230 225 212 205 178 186 200 194 174 186 220 204 205 196 192 190 188 171 184 183 176 186 184 197 194
210 211 208 206 202 197 205 190 184 183 197 195 187 198 228 234 236 218 220 224 220 183 188 190 200 195 173 181 211 216 211 199 196 192 188 177 182 186 180 194 197 199 196
212 206 210 210 203 202 201 195 191 187 192 197 187 181 178 234 183 217 217 216 220 221 219 183 197 192 184 191 208 224 220 205 199 192 190 182 181 188 186 198 200 202 203
222 219 213 208 211 198 196 189 197 197 201 195 205 216 244 269 208 195 212 222 219 212 215 206 196 196 191 199 210 213 202 196 193 192 191 185 184 189 191 192 200 205 206
213 218 218 215 211 199 197 187 192 193 196 198 207 199 219 215 234 244 251 178 220 218 213 212 197 197 201 192 203 203 199 188 186 189 192 188 188 190 194 192 197 203 208
208 214 217 215 218 205 197 195 193 196 196 199 190 200 205 193 207 224 231 243 241 196 206 200 217 211 205 211 216 191 189 186 183 187 190 190 190 193 194 194 196 200 211
216 210 206 216 212 208 198 197 201 183 205 213 188 203 198 207 211 211 232 240 239 195 163 208 228 217 211 207 214 173 192 187 184 188 192 188 193 196 196 194 195 199 207
226 211 201 210 212 206 202 199 201 183 195 214 193 207 208 213 218 226 224 221 239 254 202 201 204 226 219 208 200 175 191 196 183 190 190 187 190 193 195 196 199 200 204
232 206 191 200 211 205 202 194 203 203 200 203 187 205 223 215 223 216 226 217 213 213 220 227 207 204 209 202 199 194 186 189 194 191 190 190 192 193 194 195 197 202 207
222 203 195 189 196 194 196 198 198 200 194 192 189 198 205 200 215 216 226 219 220 228 239 213 231 209 194 196 195 196 195 172 192 197 198 192 189 194 198 199 201 203 208
216 204 188 185 193 189 184 199 189 188 180 181 186 202 206 206 206 216 218 236 241 238 246 251 248 234 196 199 193 200 190 192 188 200 196 192 190 199 202 203 202 202 203
219 210 185 192 193 196 188 199 190 178 174 182 192 198 210 199 216 223 228 232 235 240 247 257 251 233 204 196 195 189 197 186 183 178 195 200 203 198 197 195 195 196 192
230 219 194 187 190 188 190 199 187 179 170 173 164 202 213 205 221 224 228 234 246 245 241 253 257 230 214 183 195 155 114 87 85 95 88 155 189 184 182 183 174 161 149
321 166 168 191 186 181 186 190 182 187 155 153 157 201 170 206 224 247 287 281 283 267 244 239 242 229 208 192 173 152 124 99 93 81 78 84 98 104 122 127 130 127 122
21 16 43 48 104 142 153 190 169 161 134 114 100 88 68 77 71 58 350 324 297 266 245 245 233 212 197 175 167 166 123 121 86 102 104 77 84 94 96 100 108 115 118
32 30 28 35 21 20 351 239 158 134 126 107 97 102 111 104 91 80 73 58 42 311 276 242 236 227 205 195 167 152 146 141 143 136 97 72 47 79 61 82 103 108 109
38 34 32 34 41 5 22 94 89 84 83 80 90 100 96 80 80 109 89 67 48 43 34 312 299 347 247 193 156 161 173 165 138 140 115 81 70 75 84 97 107 107 105
48 40 30 26 50 28 45 47 81 83 81 75 69 78 79 70 56 85 97 81 58 48 39 34 34 37 12 305 204 168 140 103 94 82 67 99 102 94 82 97 112 113 112
43 45 39 29 34 41 32 53 56 67 72 75 72 66 75 68 59 74 86 77 64 48 48 53 47 37 37 34 33 117 137 130 105 88 53 103 158 96 58 91 117 125 122
49 50 51 41 43 48 41 48 52 55 66 66 68 70 63 70 68 65 68 68 64 32 35 41 39 35 28 31 38 39 59 139 119 98 145 98 150 122 109 12 71 95 113